Flag for Czech Republic Weather past 2 weeks in Plzen, Czech Republic

Now
61 °F

Sprinkles. Overcast.


Feels Like: 61 °F
Forecast: 51 / 64 °F
Wind: 2 mph from Northeast

Location: Kocelovice

Current Time: May 29, 2015 at 4:58:01 PM

Latest Report: May 29, 2015 at 4:00 PM


Visibility: 8 mi

Pressure: 29.85 "Hg

Humidity: 80%

Dew point: 54 °F

Location of PlzenLocation

Historic Weather in Plzen — Graph

°F

Plzen temperature yesterday

Maximum temperature yesterday: 64 °F (at 6:00 PM)
Minimum temperature yesterday: 45 °F (at 4:00 AM)
Average temperature yesterday: 54 °F

Past Weeks' High & Low Weather Summary

 TemperatureHumidityPressure
High71 °F (May 18, 6:00 PM)98% (May 20, 2:00 AM)30.32 "Hg (May 20, 2:00 AM)
Low38 °F (May 18, 5:00 AM)34% (May 16, 5:00 PM)29.70 "Hg (May 18, 8:00 PM)
Average53 °F70%30.03 "Hg
* Reported May 14 3:00 PM — May 29 3:00 PM, Plzen, Weather by CustomWeather, © 2015

Note: Actual official high and low records may vary slightly from our data, if they occured in-between our weather recording intervals... More about our weather records

Advertising

Plzen weather history for previous 24 hours

 ConditionsComfort  
Time TempWeatherWind HumidityBarometerVisibility
3:00 PM
Fri, May 29
65 °FOvercast.N/A55%29.84 "Hg16 mi
2:00 PM65 °FOvercast.N/A56%29.87 "Hg14 mi
1:00 PM63 °FPartly sunny.N/A58%29.89 "Hg28 mi
12:00 PM58 °FOvercast.N/A71%29.93 "Hg19 mi
11:00 AM56 °FSprinkles. Overcast.6 mph71%29.96 "Hg11 mi
10:00 AM59 °FOvercast.5 mph61%29.95 "Hg16 mi
9:00 AM56 °FPartly sunny.N/A70%29.95 "Hg25 mi
8:00 AM54 °FSprinkles. Overcast.2 mph74%29.96 "Hg12 mi
7:00 AM48 °FCool.N/A88%29.98 "Hg12 mi
6:00 AM45 °FCool.N/A88%29.98 "Hg12 mi
5:00 AM44 °FQuite cool.N/A90%29.99 "Hg11 mi
4:00 AM48 °FCool.1 mph81%29.97 "Hg12 mi
3:00 AM48 °FCool.1 mph82%29.98 "Hg12 mi
2:00 AM52 °FCool.2 mph68%29.97 "Hg12 mi
1:00 AM53 °FCool.3 mph67%29.96 "Hg12 mi
10:00 PM
Thu, May 28
55 °FOvercast.2 mph64%29.97 "Hg25 mi
9:00 PM57 °FPassing clouds.2 mph59%29.96 "Hg31 mi
8:00 PM60 °FPartly sunny.3 mph53%29.94 "Hg37 mi
7:00 PM62 °FPartly sunny.3 mph49%29.93 "Hg40 mi
6:00 PM64 °FPassing clouds.3 mph45%29.93 "Hg40 mi
5:00 PM63 °FPassing clouds.3 mph44%29.96 "Hg40 mi
4:00 PM61 °FScattered clouds.5 mph45%29.98 "Hg40 mi
Weather by CustomWeather, © 2015

See weather overviewHow to use our weather pages